Regional Weather Roundup
Issued by NWS Wakefield, VA

Home | Current Version | Previous Version | Graphics & Text | Print | Product List | Glossary On
Versions: 1 2 3 4 5 6 7 8 9 10 11 12 13 14 15 16 17 18 19 20 21 22 23 24 25 26 27 28 29 30 31 32 33 34 35 36 37 38 39 40 41 42 43 44 45 46 47 48 49 50
253
ASUS41 KAKQ 200014
RWRAKQ

REGIONAL WEATHER ROUNDUP
NATIONAL WEATHER SERVICE WAKEFIELD VA
700 PM EST SUN FEB 19 2017

Note: "fair" indicates few or no clouds below 12,000 feet with no
significant weather and/or obstructions to visibility. * = Denotes
station may not report precipitation (e.g., rain,snow,etc.),
thunder or fog.

VAZ042-051-052>054-056-200100-
NORTHERN VIRGINIA

CITY           SKY/WX    TMP DP  RH WIND       PRES   REMARKS
WASH NATIONAL  CLEAR     64  40  41 NW8       29.98R
DULLES         CLEAR     61  37  41 NW17      29.98R
FORT BELVOIR   CLEAR     62  37  39 VRB6      29.98R
QUANTICO       CLEAR     64  38  38 N9        29.98R
FREDERICKSBRG* CLEAR     65  38  37 NW5       29.96R
STAFFORD*      CLEAR     62  35  36 NW6       30.01R
WARRENTON      CLEAR     61  32  33 NW8       29.98R
CULPEPER*      CLEAR     65  37  35 NW7       30.00R
MANASSAS*      CLEAR     60  38  43 NW10      29.99R
LEESBURG*      CLEAR     59  45  58 W10G17    30.00R
WINCHESTER     CLEAR     55  37  50 NW23G29   30.02R
FRONT ROYAL*   CLEAR     59  36  41 W5        30.01R
LURAY*         CLEAR     59  41  51 W7        30.03R
$$

VAZ048-049-060>072-079>083-200100-
CENTRAL AND SOUTH CENTRAL VIRGINIA

CITY           SKY/WX    TMP DP  RH WIND       PRES   REMARKS
RICHMOND       CLEAR     63  46  54 CALM      29.96R
CHESTERFIELD*  FAIR      57  34  41 CALM      29.98R
PETERSBURG*    CLEAR     52  46  82 CALM      29.98R
HANOVER        CLEAR     59  45  59 CALM      29.98R
TAPPAHANNOCK*  CLEAR     59  35  40 CALM      29.97R
QUINTON*       FAIR      61  47  60 MISG      29.96R
CHARLOTTSVILLE CLEAR     66  37  34 NW7       30.00R
GORDONSVILLE*  CLEAR     65  33  30 NW3       29.99R
ORANGE*        CLEAR     61  34  36 CALM      30.00R
LOUISA*        CLEAR     66  37  34 NW5       29.98R
BUMPASS*       FAIR      57  40  52 W7        29.97R
FARMVILLE*     CLEAR     62  45  53 CALM      29.97S
CREWE*         FAIR      62  45  54 CALM      29.98R
FORT PICKETT*  FAIR      60  37  41 W5        29.99R
CHASE CITY*    FAIR      56  44  64 CALM      30.01R
CLARKSVILLE*   FAIR      57  45  62 CALM      30.00R
SOUTH HILL*    CLEAR     59  45  60 CALM      30.05R
LAWRENCEVILLE* FAIR      60  45  57 CALM      29.98R
EMPORIA*       CLEAR     54  45  71 CALM      29.99R
$$

VAZ088>098-200100-
SOUTHEAST VIRGINIA

CITY           SKY/WX    TMP DP  RH WIND       PRES   REMARKS
NORFOLK        CLEAR     55  45  68 CALM      29.95R
VIRGINIA BEACH CLEAR     55  40  56 CALM      29.95R
NORFOLK NAVAL  CLEAR     54  43  66 CALM      29.97R
WEST POINT*    PTCLDY    55  46  70 CALM      29.97R
SALUDA*        FAIR      54  48  82 CALM      29.95R
NEWPORT NEWS   CLEAR     55  47  74 CALM      29.96R
LANGLEY AFB    CLEAR     56  44  63 CALM      29.95R
FORT EUSTIS    CLEAR     58  44  58 CALM      29.94R
WILLIAMSBURG*  PTCLDY    61  48  63 CALM      29.97R
HR EXEC AP*    FAIR      52  43  71 CALM      29.95R
FRANKLIN*      CLEAR     57  47  69 CALM      29.97R
US460-WAKEFLD  CLEAR     57  49  74 CALM      29.97R
$$

VAZ020-022-025-037-045-200100-
WEST CENTRAL AND SOUTHWEST VIRGINIA

CITY           SKY/WX    TMP DP  RH WIND       PRES   REMARKS
STAUNTON*      CLEAR     56  36  46 NW5       30.05R
WAYNESBORO*    PTCLDY    56  35  44 NW3       30.03R
HOT SPRINGS VA CLEAR     43  37  81 W20       30.09R
LYNCHBURG      CLEAR     59  41  51 VRB7      30.04R
DANVILLE       CLEAR     61  43  51 NW7       30.03R
SOUTH BOSTON*  FAIR      62  41  47 W5        30.02R
MARTINSVILLE   CLEAR     58  39  50 N9        30.08S
ROANOKE        PTCLDY    55  41  59 W7        30.11R
BLACKSBURG     CLEAR     49  42  75 CALM      30.14R
DUBLIN*        CLEAR     48  41  76 W3        30.13R
MARION*        CLEAR     51  45  79 SW8       30.16R
HILLSVILLE*    CLEAR     49  41  73 N7        30.10S
RICHLANDS*     FAIR      53  42  66 NW7       30.15R
WISE*          CLEAR     54  39  58 CALM      30.16R
ABINGDON*      CLEAR     52  45  76 CALM      30.15R
$$

MDZ021>025-VAZ099-100-200100-
SOUTHERN MARYLAND AND THE DELMARVA PENINSULA

CITY           SKY/WX    TMP DP  RH WIND       PRES   REMARKS
PATUXENT RIVER CLEAR     54  43  66 NW6       29.95R
BAY BRIDGE APT CLEAR     57  41  54 W8        29.95R
LEONARDTOWN    PTCLDY    61  39  44 CALM      29.97R
DOVER          CLEAR     61  44  54 W5        29.91R
GEORGETOWN     CLEAR     60  42  51 W3        29.93R
EASTON         CLEAR     59  41  51 CALM      29.98R
CAMBRIDGE      PTCLDY    52  43  71 CALM      29.94S
SALISBURY      CLEAR     58  45  62 W6        29.93R
OCEAN CITY     CLEAR     59  42  53 W5        29.93R
WALLOPS ISLAND CLEAR     55  46  71 W3        29.95R
ACCOMACK*      CLEAR     55  44  67 NW5       29.95R
$$

NCZ012>017-030>032-200100-
NORTH CENTRAL AND EASTERN NORTH CAROLINA

CITY           SKY/WX    TMP DP  RH WIND       PRES   REMARKS
ROANOKE RAPIDS FAIR      61  45  55 W3        29.98R
RALEIGH        PTCLDY    63  43  48 CALM      30.01R
ELIZABETH CITY CLEAR     57  43  59 SE3       29.97R
AHOSKIE*         N/A     56  47  71 CALM      29.98R
EDENTON*       CLEAR     60  49  65 SE3       29.97R
CURRITUCK*     CLEAR     56  46  70 CALM      29.97R
KILL DEVIL HLS NOT AVBL
MANTEO         CLEAR     52  46  78 CALM      29.97R
CAPE HATTERAS  CLEAR     52  45  77 CALM      29.97R
TARBORO*       NOT AVBL
GOLDSBORO      CLEAR     65  44  47 NW3       29.97R
WASHINGTON     CLEAR     60  45  56 CALM      29.97R
GREENVILLE     CLEAR     57  39  51 CALM      30.00R
NEW BERN       CLEAR     59  47  64 CALM      29.98R
WILMINGTON     CLEAR     64  47  53 NW5       29.99R
$$

VAZ048-200100-
ELSEWHERE

CITY           SKY/WX    TMP DP  RH WIND       PRES   REMARKS
HARRISBURG PA  PTCLDY    55  33  43 NW8       29.94R
BALTIMORE      CLEAR     59  40  49 W7        29.95R
ANNAPOLIS      CLEAR     65  41  41 W8        29.94R
ANDREWS AFB    CLEAR     62  39  43 NW10      29.96R
PHILADELPHIA   PTCLDY    65  33  30 W8        29.92R
HENDERSON NC   CLEAR     59  42  52 CALM      30.01R
GREENSBORO     CLEAR     62  41  46 N3        30.03R
ROCKY MOUNT    CLEAR     57  47  69 CALM      29.99R
$$

VAZ100-200100-
MARINE

STATION/POSITION TIME  TEMP    WIND        PRES    WAVE   SWELL
                       AIR SEA DIR/SP/G            HT/PER HT/PER
                 (UTC) (F)     (DEG/KT/KT) (MB)    (FT/S) (FT/S)
CAPE MAY NJ      2348   53 40  240/  7/  9 1012.6R
LEWES DE         2348   63 42  250/  6/  6 1013.0R
OCEAN-CITY-INLET 2348          290/  3/  4   N/A
WACHAPREAGUE VA  2348   57 51  270/  1/  2 1014.1R
THOMAS POINT MD  0000   62 42  280/ 13/ 14   N/A
GOOSES REEF MD   0000   56 44  300/  8/ 10 1014.9
COVE POINT MD    2348   64     340/  6/  7 1014.7R
SOLOMONS ISLAND  2348          310/  1/  2   N/A
BISHOPS HEAD MD  2348   53 48  240/  4/  4 1014.2R
PINEY POINT MD   2348          350/  5/  6   N/A
POTOMAC MD       0000   57 44  270/  2/  4 1013.2
CAMBRIDGE MD     2348   62 40  260/  6/  8 1013.3R
LEWISETTA VA     2348   56 45  250/  2/  3 1013.7R
RAPPAHANNOCK LGT 2348          170/  3/  4 1014.8R
YORK RVR RNG VA  2348   56     210/  1/  2 1013.6R
YORKTOWN VA      2348   55 45  280/  2/  3 1014.0R
JAMESTOWN VA     0000   60 49   CALM  /  2   N/A     0
DOMINION TERM VA 2348   60      80/  2/  3 1014.4R
KIPTOPEKE VA     2348      46  130/  2/  4   N/A
CHES BAY BRIDGE  2348   57 46  220/  2/  3 1014.3R
CAPE HENRY VA    2348   59     230/  1/  2   N/A
WILLOUBY STN VA  2348          130/  2/  2   N/A
S CRANEY ISL VA  2348   59      CALM  /  2 1014.1R
CAPE HENRY BUOY  2342      48                N/A     1/ 9
OFFSHORE WE BUOY 2351      48                N/A     2/ 8
64NM E OF VA BCH 2350   53 51  350/  6/  8 1013.9R   2/ 8   2/ 8
DUCK PIER NC     2348   54 49  300/  3/  3 1014.0R
44100 DUCK FRF   2335      49                N/A     1/ 7
44056 DUCK FRF   2330      49                N/A     1/ 7
OREGON INLET NC  2348          360/  2/  4   N/A
HATTERAS NC      2348   58 56     CALM     1014.6R
DIAMOND SHLS NC  2350   62 67  350/  8/ 10 1015.0R   2/ 7   2/ 7
CAPE LOOKOUT NC  0000   59     220/  3/  4 1014.7R
$$




USA.gov is the U.S. government's official web portal to all federal, state and local government web resources and services.